This is the latest recevied weather packets stored in our database for station/object WA6ODQ-13. If no packets are shown the sender has not sent any weather packets the latest 10 day(s).
| Time | Temp. | Humidity | Pressure | Rain* | Wind** | Luminosity | Snow |
|---|---|---|---|---|---|---|---|
| 1778098911 | 23.89° C | 55% | 1017.9 hPa | 0 mm | - | 467 W/m² | - |
| 1778098608 | 23.33° C | 58% | 1017.9 hPa | 0 mm | - | 430 W/m² | - |
| 1778098304 | 22.78° C | 58% | 1017.8 hPa | 0 mm | - | 426 W/m² | - |
| 1778098001 | 22.78° C | 59% | 1018 hPa | 0 mm | - | 414 W/m² | - |
| 1778097698 | 23.33° C | 57% | 1017.9 hPa | 0 mm | - | 469 W/m² | - |
| 1778097395 | 23.33° C | 57% | 1018 hPa | 0 mm | - | 476 W/m² | - |
| 1778097091 | 22.78° C | 59% | 1018.3 hPa | 0 mm | - | 424 W/m² | - |
| 1778096789 | 22.78° C | 61% | 1018.2 hPa | 0 mm | - | 397 W/m² | - |
| 1778096485 | 22.22° C | 63% | 1018.3 hPa | 0 mm | - | 330 W/m² | - |
| 1778096183 | 22.78° C | 62% | 1018.2 hPa | 0 mm | - | 292 W/m² | - |
| 1778095880 | 22.78° C | 59% | 1018.6 hPa | 0 mm | - | 274 W/m² | - |
| 1778095576 | 22.22° C | 64% | 1018.6 hPa | 0 mm | - | 255 W/m² | - |
| 1778095272 | 21.67° C | 63% | 1018.5 hPa | 0 mm | - | 205 W/m² | - |
| 1778094969 | 21.67° C | 61% | 1018.8 hPa | 0 mm | - | 181 W/m² | - |
| 1778094665 | 21.67° C | 65% | 1018.7 hPa | 0 mm | - | 170 W/m² | - |
| 1778094363 | 22.22° C | 59% | 1018.8 hPa | 0 mm | - | 172 W/m² | - |
| 1778094059 | 22.78° C | 63% | 1018.6 hPa | 0 mm | - | 185 W/m² | - |
| 1778093757 | 22.22° C | 61% | 1018.6 hPa | 0 mm | - | 242 W/m² | - |
| 1778093453 | 22.78° C | 61% | 1018.7 hPa | 0 mm | - | 285 W/m² | - |
| 1778093150 | 22.22° C | 63% | 1018.7 hPa | 0 mm | - | 420 W/m² | - |
| 1778092848 | 22.78° C | 66% | 1018.7 hPa | 0 mm | - | 758 W/m² | - |
| 1778092543 | 22.22° C | 67% | 1018.7 hPa | 0 mm | - | 436 W/m² | - |
| 1778092240 | 23.89° C | 63% | 1018.7 hPa | 0 mm | - | 246 W/m² | - |
| 1778091938 | 23.33° C | 64% | 1018.9 hPa | 0 mm | - | 220 W/m² | - |
| 1778091635 | 22.78° C | 66% | 1018.7 hPa | 0 mm | - | 828 W/m² | - |
* Rain latest hour (hover to see other rain measurements)
** Current wind speed in m/s (hover to see current wind gust speed)